Wind_Speed
10 10 9 9 7 7 14 13 11 4 9 2 3 6 13 13 9 5 8 6 8 18 24 30 30 27 24 22 19 16 13 11 8 6 5 5 4 4 4 5 5 5 5 4 4 4 5 5 5
12 11 9 7 8 13 13 12 10 5 8 6 9 9 11 9 7 5 6 7 10 20 24 28 31 29 25 22 20 17 14 12 10 8 7 7 6 6 6 7 7 7 7 7 6 7 8 7 7
11 13 8 7 13 14 8 5 7 6 2 5 6 1 8 8 5 6 8 4 13 19 22 26 30 30 26 23 21 18 15 13 12 11 10 9 9 10 10 9 9 10 10 10 9 10 11 10 9
13 10 8 11 18 15 13 5 6 8 8 4 7 11 2 5 3 7 4 6 14 19 22 25 29 31 27 25 22 19 16 14 14 12 11 11 11 13 13 12 11 12 13 13 13 13 13 11 9
19 9 13 15 19 20 9 9 12 11 9 7 3 11 7 17 9 4 2 7 11 15 18 20 27 31 29 27 23 20 18 16 15 14 12 11 12 13 12 13 13 14 16 17 16 18 17 13 11
10 12 14 15 20 18 10 7 11 14 13 10 6 12 8 9 8 5 2 6 11 15 18 20 24 28 30 29 25 23 20 18 16 14 12 12 12 13 14 15 16 14 15 15 15 16 14 15 12
17 13 17 20 19 18 5 4 11 14 12 12 11 5 10 7 8 6 6 8 10 15 19 19 18 26 31 30 28 25 22 20 18 15 14 12 13 13 16 15 15 15 15 15 15 14 14 14 14
15 14 23 21 18 21 16 2 13 9 13 4 1 9 13 14 10 12 16 11 13 15 18 19 19 19 22 24 30 27 24 21 18 17 15 14 14 15 17 17 16 15 13 13 14 14 14 14 15
17 16 18 24 22 19 20 15 16 1 10 16 15 13 15 19 12 14 15 17 17 14 16 18 21 21 22 23 23 28 25 22 19 17 16 14 12 13 13 14 13 14 16 13 11 11 12 16 18
20 18 25 23 20 18 21 22 19 17 13 16 16 19 22 15 15 17 18 16 21 17 18 21 22 22 22 23 23 21 20 18 16 16 14 11 12 13 11 9 14 17 13 11 11 10 12 12 13
25 25 25 24 24 25 25 27 25 21 21 22 18 18 19 19 20 20 19 22 19 21 17 21 24 26 24 24 23 18 20 19 18 17 16 14 12 12 12 12 12 10 14 8 11 12 12 12 13
29 31 28 29 29 29 32 31 30 24 21 24 19 19 20 21 19 17 20 22 22 19 17 20 24 28 26 24 25 21 20 20 18 17 16 14 13 13 13 13 13 10 11 11 9 11 11 7 10
32 32 31 31 31 34 32 29 33 27 23 24 26 21 22 21 21 22 23 23 22 21 20 16 28 29 28 28 25 24 22 20 18 16 15 15 15 13 13 13 12 13 12 12 10 12 7 9 13
32 33 33 33 34 31 33 33 29 27 25 28 27 22 25 26 20 20 21 21 21 22 19 17 27 30 31 30 23 25 21 19 19 16 15 15 14 13 13 14 15 16 14 15 13 11 12 12 15
33 36 35 35 32 32 24 32 36 29 27 28 29 24 25 23 20 17 21 20 20 21 18 17 24 31 32 31 29 26 24 22 19 16 14 14 13 13 13 16 14 17 17 16 17 14 13 14 16
32 31 29 34 34 31 28 35 31 28 27 29 27 21 25 19 20 21 23 19 18 17 17 18 24 31 32 30 29 27 24 23 20 15 14 14 13 13 14 17 15 16 15 15 15 16 14 15 16
26 28 38 32 31 28 30 37 31 27 26 27 28 29 17 21 23 24 26 22 21 21 18 20 24 29 31 28 28 26 21 21 18 15 13 13 13 13 15 16 16 15 12 11 13 14 16 15 14
31 32 30 33 30 28 32 35 33 29 21 26 27 27 23 21 26 27 26 24 21 18 16 18 24 25 28 26 24 24 21 19 16 13 13 11 12 11 13 14 14 12 11 12 13 14 15 14 14
30 26 31 32 28 27 29 30 31 19 23 27 27 28 23 22 26 29 27 23 18 14 15 18 21 24 27 25 25 24 22 18 14 12 11 11 11 11 12 12 12 13 12 13 12 12 13 13 12
31 31 32 29 27 21 22 23 25 25 25 25 27 26 24 25 26 24 23 18 10 11 15 19 22 24 27 24 23 20 17 15 13 11 10 9 10 11 12 10 12 12 11 12 11 12 13 12 12
32 31 29 29 24 20 19 27 28 25 27 27 28 29 28 27 24 21 18 12 9 14 17 20 21 24 24 21 18 14 12 8 7 9 10 11 7 9 9 10 10 9 10 8 10 12 13 12 13
31 29 27 23 20 18 20 22 23 21 23 25 23 22 21 20 20 19 18 9 11 15 17 19 22 25 22 22 19 17 14 11 9 4 3 3 5 6 6 7 8 7 7 6 8 10 11 14 13
35 25 24 23 21 22 23 16 18 21 22 25 24 23 21 20 20 20 14 13 14 16 18 22 24 24 24 19 17 15 10 7 4 4 2 4 3 5 7 5 6 6 4 5 5 5 7 10 12
27 27 24 18 17 19 21 19 24 19 20 18 13 13 17 18 19 10 14 16 17 19 22 24 26 23 21 18 15 10 7 4 4 4 4 5 4 5 5 5 4 3 3 4 5 4 5 5 6
29 22 15 16 17 20 18 17 21 18 17 18 16 16 3 5 9 11 14 15 19 23 25 26 25 23 20 17 14 11 9 6 4 3 6 6 5 7 7 5 4 2 4 5 4 6 5 5 4
30 29 15 26 11 16 23 16 16 14 9 10 13 11 13 6 9 13 15 16 21 25 26 25 24 22 19 16 14 11 8 9 5 3 1 7 6 6 7 5 3 2 3 4 4 5 4 5 4
38 28 32 21 22 11 14 10 14 17 14 13 13 9 9 11 12 15 16 17 24 25 24 24 23 20 18 15 13 10 7 3 7 5 4 6 6 7 6 3 2 3 5 2 2 1 2 2 3
35 27 25 21 23 14 14 9 10 5 9 7 13 10 13 14 16 17 17 18 24 24 23 22 20 19 17 15 13 11 8 7 6 6 5 6 6 5 5 3 3 1 3 1 2 1 3 5 5
28 25 29 21 17 14 12 10 3 6 10 7 13 11 15 16 17 18 18 21 23 23 22 21 19 18 16 14 12 13 9 8 7 5 8 7 7 6 5 4 3 2 1 1 2 3 3 5 6
31 28 32 15 22 17 9 6 6 5 3 4 3 13 16 17 18 19 19 19 22 22 21 19 18 17 16 14 12 12 10 5 6 8 9 8 8 6 5 4 4 3 3 0 2 4 3 6 6
Wind_Direction
184 176 202 214 236 231 250 234 272 203 213 118 305 288 332 343 327 358 95 98 135 157 167 179 182 184 184 183 184 185 190 195 201 207 216 229 238 241 250 249 250 242 239 240 241 241 255 263 259
182 186 217 271 251 230 235 211 181 225 13 325 288 268 248 281 350 344 65 120 163 162 169 177 185 188 189 190 190 193 199 205 213 225 236 246 253 260 268 272 264 254 251 257 261 261 248 241 251
208 198 254 229 235 263 300 35 234 88 265 280 279 139 317 327 56 350 57 150 164 168 174 181 189 192 194 196 199 201 206 213 220 231 243 249 258 266 269 270 266 265 263 262 262 262 262 247 240
184 209 255 260 254 233 284 272 59 250 187 220 312 287 347 100 343 30 24 174 175 178 180 190 197 194 198 200 205 205 212 221 229 239 247 257 262 268 272 272 265 266 264 261 263 262 259 259 260
213 252 246 242 245 268 268 273 311 303 282 253 227 302 321 83 81 55 69 189 197 190 188 191 206 201 202 204 208 211 214 223 233 242 249 260 268 271 273 269 265 266 265 266 265 264 258 253 257
220 238 252 250 246 247 228 272 274 272 273 282 214 262 305 113 58 26 334 203 215 199 194 190 210 209 208 209 212 215 217 224 235 245 254 264 275 279 274 271 268 268 268 270 273 275 266 257 251
235 243 249 268 278 281 266 283 279 264 272 281 3 315 300 111 54 330 296 273 232 218 196 200 198 211 215 213 216 219 221 226 233 242 250 261 272 271 273 269 267 268 267 268 269 271 270 258 249
244 249 265 268 262 269 280 335 261 280 274 9 38 286 307 339 351 312 292 273 263 227 208 212 203 206 207 212 219 222 225 229 232 238 245 255 269 267 268 273 278 270 267 270 267 264 262 258 250
235 252 251 252 257 263 263 247 245 191 284 297 298 287 283 277 293 286 292 283 269 263 220 214 211 206 209 210 219 224 226 228 230 232 240 251 263 269 252 254 250 270 273 270 267 263 260 254 254
225 240 241 256 264 274 282 288 286 270 240 263 273 281 273 310 292 291 293 272 272 236 232 220 211 207 208 212 210 208 215 218 220 227 233 239 252 260 266 267 275 286 270 266 257 248 251 252 247
233 240 252 259 265 277 282 275 280 272 274 280 286 293 302 296 296 289 282 282 273 277 226 225 199 201 208 209 205 207 211 211 218 224 229 236 247 258 261 265 261 245 250 257 243 238 228 235 250
242 239 247 261 269 279 276 281 283 269 276 279 284 284 295 294 289 288 294 286 278 260 258 212 208 196 202 209 206 209 209 207 212 220 224 232 238 244 249 266 272 257 260 265 264 260 251 266 275
239 244 253 260 266 267 271 272 280 272 271 279 286 284 277 277 279 277 285 277 266 262 262 246 199 193 197 210 208 205 211 207 212 219 222 225 237 244 256 263 265 266 264 266 265 268 272 262 256
246 253 255 258 264 264 267 271 265 261 259 266 274 266 274 273 279 281 280 276 266 261 256 242 196 194 195 203 214 198 205 208 210 219 228 222 234 245 256 261 249 253 255 252 259 259 263 260 259
258 259 261 256 256 261 268 271 263 265 266 268 271 268 268 265 265 271 279 272 265 258 254 235 202 191 192 200 207 200 201 204 209 218 225 229 231 246 257 264 263 257 251 249 247 254 259 255 259
251 254 259 253 253 249 247 260 264 272 272 264 272 264 277 262 272 273 280 271 262 260 255 222 210 194 192 198 203 204 202 199 209 215 224 224 237 247 261 263 268 263 251 244 245 237 244 252 255
244 243 241 254 247 251 244 252 257 256 266 273 266 263 274 269 275 277 274 270 257 253 247 230 208 197 192 198 199 201 204 197 205 212 222 232 240 250 259 265 269 266 255 240 242 237 232 247 246
229 237 246 257 260 250 251 254 260 259 269 267 269 276 259 263 274 277 272 269 252 243 236 217 203 194 189 196 196 198 197 201 206 210 225 236 247 257 262 267 266 263 252 245 240 235 231 234 243
243 248 249 250 253 242 253 264 274 276 258 263 269 273 270 269 274 271 271 267 249 247 220 202 182 189 184 194 194 194 190 197 201 213 225 241 253 266 267 265 260 252 247 248 245 238 232 232 239
243 249 251 262 268 274 274 274 272 270 277 279 276 279 277 272 271 268 262 264 207 208 195 189 187 181 181 187 193 193 194 192 200 212 219 236 260 269 268 252 256 254 253 242 234 231 233 233 223
231 236 247 254 266 273 279 271 267 264 265 263 262 263 260 258 260 267 266 235 195 193 185 183 178 174 180 177 178 166 178 172 186 215 229 233 244 265 255 260 255 254 246 250 239 234 228 228 220
237 231 244 259 270 261 254 269 263 269 271 272 274 271 268 262 259 247 250 143 183 182 171 168 166 165 166 159 163 167 177 196 199 204 261 270 249 269 267 260 240 225 237 240 243 237 229 220 217
241 237 240 238 250 263 256 260 272 266 266 263 261 256 258 256 245 248 233 145 170 160 159 154 154 159 150 165 162 169 195 178 196 209 211 226 240 249 253 212 212 224 233 242 234 221 211 214 204
236 235 242 245 253 248 245 256 268 272 274 281 306 265 253 244 229 212 112 143 149 152 150 150 152 149 155 153 154 181 158 161 180 205 262 182 223 223 230 209 212 228 237 228 220 194 196 210 208
220 218 224 228 229 244 248 247 260 274 281 287 289 279 119 61 115 140 149 152 152 150 149 150 150 150 151 150 153 148 153 155 185 224 201 172 197 206 186 188 199 214 236 221 210 205 206 204 214
217 208 211 218 217 236 224 244 256 266 288 268 284 228 130 156 148 156 156 150 149 148 150 149 150 150 153 152 154 152 152 175 193 188 345 148 184 183 153 184 150 217 208 210 222 225 224 227 221
213 210 217 248 217 251 245 203 243 249 252 234 236 194 177 146 154 148 146 149 146 148 150 150 150 150 154 155 153 151 172 145 87 123 163 140 183 132 165 165 177 208 206 224 257 280 226 242 240
227 205 210 225 239 220 236 254 263 197 311 197 196 177 132 149 147 144 147 145 144 147 147 149 150 153 156 157 157 155 158 164 150 160 175 159 135 155 167 179 197 195 218 215 227 220 221 236 245
208 210 211 218 227 229 245 256 70 265 245 260 197 148 146 154 147 150 146 142 146 145 147 149 150 154 156 156 166 144 159 168 164 167 164 161 165 170 191 194 222 232 198 280 228 201 207 200 224
212 208 201 214 208 236 211 229 154 88 270 254 302 126 151 152 153 149 145 149 149 148 151 154 155 154 160 166 152 154 157 164 168 175 161 167 171 180 206 201 220 241 102 37 202 142 163 180 197
Height
789 790 789 785 791 776 766 754 728 740 738 725 725 733 732 726 741 758 732 738 743 747 752 755 759 764 767 770 774 777 780 781 783 784 785 786 787 789 791 791 793 794 794 794 796 797 798 798 798
791 791 788 776 787 775 749 730 741 729 726 725 725 727 732 736 719 724 727 739 743 747 751 754 758 763 767 771 773 776 779 780 782 783 785 785 787 788 790 791 792 793 794 795 795 796 797 797 797
790 789 781 773 772 767 745 741 725 724 726 729 731 725 728 732 724 730 737 740 743 747 750 754 756 762 766 770 773 775 777 780 781 783 784 785 786 788 788 789 791 792 793 794 794 795 796 795 796
788 788 779 779 767 740 736 723 720 728 722 726 725 735 721 723 729 734 738 741 743 746 749 752 755 759 763 768 771 773 775 779 781 781 783 784 785 786 787 788 788 789 791 792 792 792 793 793 794
784 772 779 769 762 738 721 721 720 729 727 726 723 737 730 726 733 737 739 740 743 747 751 753 755 758 761 766 769 772 773 776 779 780 781 782 784 785 785 786 787 787 788 789 789 789 790 791 792
779 769 778 769 751 731 720 720 725 727 722 722 727 730 729 725 729 734 737 738 740 742 748 751 753 756 759 764 767 771 772 774 777 779 781 781 782 783 783 784 784 785 785 785 786 785 786 787 788
776 769 773 758 748 734 724 716 728 726 724 724 719 739 728 722 730 734 735 736 736 737 744 748 751 753 757 762 765 768 770 772 774 777 779 780 780 781 782 782 781 782 782 782 782 782 783 784 786
769 766 770 755 756 747 720 720 722 725 727 713 725 742 734 721 728 732 730 729 731 733 737 745 749 754 758 761 763 765 768 770 772 774 777 778 778 779 779 779 779 779 779 779 779 778 780 781 782
763 776 772 758 750 740 719 722 715 714 729 724 722 724 724 723 727 729 728 727 727 728 731 739 744 750 756 759 762 763 766 768 770 772 774 775 777 777 776 775 775 776 776 776 776 775 776 777 778
768 766 759 738 728 730 719 717 716 721 722 726 723 717 716 717 719 719 719 717 719 720 726 732 739 745 751 754 757 760 764 767 769 771 773 773 774 775 774 774 773 773 772 773 772 773 773 774 774
754 757 743 732 723 720 721 721 714 721 729 723 723 719 717 717 717 716 714 713 714 714 716 724 731 738 744 749 752 757 761 763 765 768 769 769 771 771 771 770 769 768 768 770 768 770 770 770 770
752 737 736 730 725 724 723 713 715 715 719 715 712 716 716 716 714 711 709 709 708 708 711 716 725 731 737 742 745 750 754 757 760 763 766 767 767 767 768 767 767 766 768 766 767 767 767 767 769
734 731 728 723 723 721 713 716 717 711 710 710 710 713 714 709 707 706 705 705 705 707 709 711 717 725 731 737 740 744 748 751 755 758 761 763 763 763 764 764 765 765 765 765 765 765 765 766 767
724 723 722 719 720 715 719 712 711 709 707 707 706 707 706 702 699 700 700 699 700 703 705 708 711 718 725 731 735 738 742 746 751 753 756 758 759 759 759 761 761 762 763 763 762 763 763 764 764
720 727 718 712 713 713 713 718 712 703 701 702 700 696 697 693 693 693 695 695 697 699 700 704 706 712 717 725 730 733 736 741 746 749 752 755 756 756 757 758 757 757 758 757 758 759 761 762 761
727 724 731 707 706 704 713 719 705 699 699 698 689 687 687 686 687 687 690 690 692 694 697 699 701 706 711 718 725 729 732 735 740 744 747 751 753 753 754 754 754 754 753 754 755 757 758 758 758
723 728 716 712 697 700 704 707 695 690 693 692 690 683 684 684 683 682 684 685 687 689 691 694 697 701 708 716 721 726 730 733 736 739 743 746 748 748 750 750 750 750 749 751 752 753 755 755 755
719 719 717 713 697 691 695 694 681 676 685 687 685 677 674 676 678 678 676 678 679 681 685 689 693 700 707 714 719 724 727 731 733 735 739 742 744 744 746 746 746 746 747 747 748 749 750 752 753
705 706 703 692 682 691 694 690 679 673 680 682 676 671 667 672 671 669 667 668 670 675 680 686 691 698 705 712 716 719 722 727 730 733 736 740 741 741 742 743 744 743 743 744 745 746 747 749 752
710 709 702 691 682 687 690 693 680 675 673 673 671 669 667 665 663 660 659 661 668 673 680 685 690 695 702 708 713 717 721 724 726 729 733 737 737 738 739 740 741 740 741 741 743 744 746 747 749
699 704 703 699 688 683 693 693 683 674 670 668 664 661 657 657 656 653 654 655 667 673 679 684 689 695 701 705 711 716 721 723 725 728 731 732 734 736 737 738 738 738 738 739 741 742 744 745 746
698 687 693 698 704 713 687 697 677 668 664 657 652 649 645 645 644 645 645 654 667 673 679 684 690 696 700 705 711 715 718 720 720 724 727 730 733 735 735 736 736 737 737 738 739 739 740 741 742
677 682 686 692 701 703 698 701 678 663 665 653 642 638 636 635 637 637 637 654 667 673 679 685 691 697 700 706 710 714 715 718 721 724 728 731 732 734 734 735 735 737 737 737 736 737 738 739 740
674 684 684 687 695 707 694 695 675 665 651 640 631 626 623 622 624 629 642 657 667 674 681 687 692 698 703 706 711 713 716 718 720 724 726 728 731 733 734 734 735 735 736 736 735 736 737 738 738
670 686 707 716 706 697 678 684 663 645 635 633 632 626 621 624 629 638 651 659 667 674 681 688 693 699 704 707 711 715 718 721 723 725 723 727 730 731 733 734 735 735 736 736 735 736 737 738 738
662 670 682 707 697 686 663 676 654 628 623 625 622 621 622 633 637 645 653 660 667 675 682 687 694 699 704 707 712 715 718 719 720 724 722 723 727 730 732 734 735 735 735 735 735 735 736 736 736
653 662 651 665 658 665 646 640 632 622 622 623 624 620 623 634 641 647 654 661 668 675 682 689 694 699 704 708 712 715 719 719 721 724 725 726 728 730 732 733 735 735 733 734 733 734 734 735 735
639 637 671 658 681 681 658 653 650 636 630 618 622 620 626 636 642 649 656 663 671 677 684 690 694 699 704 708 711 715 718 721 723 725 725 727 729 730 732 733 733 734 732 732 733 733 734 734 735
634 639 646 652 653 670 677 659 626 629 626 617 615 613 628 636 643 650 657 665 673 679 686 691 696 700 704 708 711 715 718 720 723 725 726 728 731 732 732 733 733 732 732 733 733 734 734 734 733
621 629 639 649 662 647 647 650 616 619 619 616 614 619 629 635 643 649 656 666 673 679 686 691 696 699 704 707 710 714 718 719 723 725 726 728 730 732 732 732 732 732 732 734 734 734 734 734 735